Regional Weather Roundup
Issued by NWS Charleston, SC

Current Version | Previous Version | Graphics & Text | Print | Product List | Glossary On
Versions: 1 2 3 4 5 6 7 8 9 10 11 12 13 14 15 16 17 18 19 20 21 22 23 24 25 26 27 28 29 30 31 32 33 34 35 36 37 38 39 40 41 42 43 44 45 46 47 48 49 50
000
ASUS42 KCHS 231912
RWRCHS

REGIONAL WEATHER ROUNDUP
NATIONAL WEATHER SERVICE CHARLESTON SC
300 PM EDT SUN APR 23 2017

NOTE: "FAIR" INDICATES FEW OR NO CLOUDS BELOW 12,000 FEET WITH NO
SIGNIFICANT WEATHER AND/OR OBSTRUCTIONS TO VISIBILITY.

NOT ALL STATIONS ARE QUALITY CONTROLLED. USE DATA WITH CAUTION...
ESPECIALLY DEWPOINT OBSERVATIONS.

SCZ027-030-031-034>040-042>050-232000-
...SOUTHEAST SOUTH CAROLINA...

CITY           SKY/WX    TMP DP  RH WIND       PRES   REMARKS
N CHARLESTON   MOSUNNY   82  67  60 S15       29.83F
WATERFRONT PRK   N/A     76  71  84 S10       29.82F
JOHNS ISLAND   MOCLDY    79  72  78 SE10      29.84F
PINOPOLIS        N/A     72  70  94 NE16      29.75F
MONCKS CORNER  MOCLDY    82  64  54 SE13      29.81F
SUMMERVILLE    FAIR      84  66  54 SE9G18    29.81F
BEAUFORT MCAS  MOSUNNY   84  69  60 S12       29.80F
BEAUFORT ARPT  FAIR      79  68  69 SE9G17    29.81F
HILTON HEAD IS SUNNY     79  70  73 SE8       29.82F
WALTERBORO     RAIN      79  64  61 S14G20    29.81F
ALLENDALE      MOCLDY    84  61  45 S12G20    29.76F

...SOUTHERN MIDLANDS AND PEE DEE...

CITY           SKY/WX    TMP DP  RH WIND       PRES   REMARKS
GEORGETOWN     CLOUDY    73  68  83 E8G17     29.87S
KINGSTREE      CLOUDY    68  61  77 NE10      29.86F
ORANGEBURG     MOSUNNY   84  61  45 S9        29.78F
BARNWELL       FAIR      86  63  45 S10G16    29.77F
AIKEN          MOCLDY    70  61  73 NE17      29.83S
MANNING        MOCLDY    73  64  73 E13G32    29.83F
COLUMBIA       CLOUDY    72  60  66 N12       29.82F
SUMTER         CLOUDY    74  60  61 E17       29.82F
FLORENCE       CLOUDY    65  59  81 E15       29.89F
MYRTLE BEACH   CLOUDY    70  64  83 E16       29.90S
N MYRTLE BEACH CLOUDY    71  65  81 E8        29.89F

$$

GAZ063-065-086>088-099>101-113>116-118-119-134>141-150-232000-
...SOUTHEAST GEORGIA...

CITY           SKY/WX    TMP DP  RH WIND       PRES   REMARKS
SAVANNAH ARPT  MOSUNNY   88  63  43 S17G23    29.79F
HUNTER AAF     SUNNY     84  70  62 SE14G21   29.77F
FORT STEWART   MOSUNNY   88  61  40 S8        29.76F
STATESBORO     PTSUNNY   85  58  39 S10G20    29.77F
SYLVANIA       PTCLDY    90  61  37 S8        29.78F
CLAXTON        FAIR      86  64  48 S5        29.78F

...CSRA...CENTRAL AND FAR SOUTHEAST GEORGIA...

CITY           SKY/WX    TMP DP  RH WIND       PRES   REMARKS
THOMSON        PTSUNNY   77  64  64 SE12      29.82F
AUGUSTA-BUSH   MOSUNNY   88  63  43 SW13      29.75F
AUGUSTA-DANIEL PTSUNNY   83  59  44 SE7       29.77F
SWAINSBORO     MOCLDY    82  55  39 S9        29.78F
VIDALIA        MOSUNNY   86  59  39 SW16G22   29.78F
EASTMAN        MOCLDY    85  40  20 S9        29.80F
HAZLEHURST     FAIR      86  60  42 SW12G17   29.77F
ALMA           SUNNY     86  60  41 S12       29.78F
WAYCROSS       PTSUNNY   87  66  48 SW12      29.78F
JESUP          FAIR      86  55  35 SW6       29.79F
BAXLEY         FAIR      86  64  48 SW9       29.77F
BRUNSWICK      SUNNY     86  68  54 SE16      29.80F
SAINT SIMONS   SUNNY     81  66  60 SE16      29.81F

$$

SCZ027-028-034-036>038-045-046-048>050-GAZ119-141-232000-
...LAKE AND SUPPLEMENTAL COASTAL OBSERVATIONS...

STATION/POSITION TIME  TEMP    WIND        PRES    WAVE   SWELL
                       AIR SEA DIR/SP/G            HT/PER HT/PER/DIR
                 (UTC) (F)     (DEG/KT/KT) (MB)    (FT/S) (FT/S/D)
WINYAH BAY       1745   70      70/ 13     1011.0
LAKE MURRAY      1820   63      30/  5/  9 1010.5F
ACE BASIN NERRS  1745   80     160/  3     1010.0
FORT PULASKI     1842   80 75  170/ 10/ 15 1010.0F
SAPELO ISLAND    1800   84     150/ 12     1010.0

$$

ANZ835-935-AMZ111-154-330-350-352-354-370-450-454-472-232000-
...C-MAN AND BUOY OBSERVATIONS...

STATION/POSITION TIME  TEMP    WIND        PRES    WAVE   SWELL
                       AIR SEA DIR/SP/G            HT/PER HT/PER/DIR
                 (UTC) (F)     (DEG/KT/KT) (MB)    (FT/S) (FT/S/D)
BUOY 41004       1850   75 75  160/ 14/ 17 1010.9F   3/12   2/ 90/12
BUOY 41008       1850   74 73  170/ 12/ 14 1009.8F   3/ 5   2/ 80/12
FOLLY BEACH CMAN 1800   75     170/ 10/ 12 1011.6F
CAPERS NEARSHORE 1808   75 73  190/  8/ 12 1011.0F
FRIPP NEARSHORE  1808   74 75  180/  8/ 12 1010.3F


STATION/POSITION TIME  TEMP    WIND        PRES    WAVE   SWELL
                       AIR SEA DIR/SP/G            HT/PER HT/PER/DIR
                 (UTC) (F)     (DEG/KT/KT) (MB)    (FT/S) (FT/S/D)
5E ST. MARYS GA  1900      74                N/A     3/13   2/100/13
FRYING PAN BUOY  1850   74 74   70/  8/ 12 1011.9F   4/ 5   3/190/ 5
BUOY 41025       1850   66 75   20/ 17/ 23 1014.2F   6/11   3/ 60/11
CAPE LOOKOUT NC  1800   64      40/ 20/ 24 1014.4F
BUOY 41002       1850   73 75  160/ 10/ 14 1014.2F   4/12   3/ 50/12
BUOY 41010       1850   76 78  160/ 16/ 19 1010.8F   6/13   5/ 60/13
ST AUGUSTINE FL  1900   75 77  140/ 11/ 13 1010.7F


$$



USA.gov is the U.S. government's official web portal to all federal, state and local government web resources and services.